Stations météo

réclame
Mon MeteoGroup
Aubenas, France (7570): Température de l'air & dewpoint: 19.09.2018 09:00:00 - 25.09.2018 09:00:00 (CEST)Aubenas, France (7570): Température de l'air 5cm: 19.09.2018 09:00:00 - 25.09.2018 09:00:00 (CEST)Aubenas, France (7570): Température de l'air -20cm & Température de l'air -100cm: 19.09.2018 09:00:00 - 25.09.2018 09:00:00 (CEST)Aubenas, France (7570): Vitesse du vent & gusts: 19.09.2018 09:00:00 - 25.09.2018 09:00:00 (CEST)Aubenas, France (7570): Direction du vent: 19.09.2018 09:00:00 - 25.09.2018 09:00:00 (CEST)Aubenas, France (7570): reduced air pressure: 19.09.2018 09:00:00 - 25.09.2018 09:00:00 (CEST)Aubenas, France (7570): visibility: 19.09.2018 09:00:00 - 25.09.2018 09:00:00 (CEST)Aubenas, France (7570): Quantités de précipitations: 19.09.2018 09:00:00 - 25.09.2018 09:00:00 (CEST)
Date & Time tt [°C] td [°C] tt 5cm [°C] tt -20cm [°C] tt -100cm [°C] ff [km/h] ff [knt] fx [km/h] fx [knt] dd ppp [hPa] vv [km] rr [mm]
25.09.2018 09:00:00 14,6 2,1 12,8 23,2 22,5 13 7 23 13 NNE 1029,5 20 0,0
25.09.2018 08:00:00 12,5 1,5 10,9 23,3 22,5 8 4 21 12 NE 1029,4 20 0,0
25.09.2018 07:00:00 12,3 1,3 10,9 23,3 22,5 10 5 31 17 NNE 1029,2 20 0,0
25.09.2018 06:00:00 12,8 1,1 12,4 23,4 22,5 18 10 35 19 N 1028,9 20 0,0
25.09.2018 05:00:00 13,0 0,7 12,5 23,4 22,5 20 11 32 18 N 1028,7 20 0,0
25.09.2018 04:00:00 13,2 0,6 12,1 23,4 22,5 17 9 29 16 N 1028,6 20 0,0
25.09.2018 03:00:00 13,2 0,2 12,3 23,5 22,5 15 8 32 17 NNE 1028,3 20 0,0
25.09.2018 02:00:00 13,4 0,7 12,6 23,5 22,5 18 10 43 23 N 1028,1 20 0,0
25.09.2018 01:00:00 14,0 1,6 12,9 23,5 22,5 29 15 58 31 N 1028,2 20 0,0
25.09.2018 00:00:00 13,9 2,5 12,9 23,5 22,5 29 16 53 29 N 1028,5 20 0,0
24.09.2018 23:00:00 14,0 3,2 13,2 23,6 22,5 19 10 55 30 N 1028,6 20 0,0
24.09.2018 22:00:00 14,8 3,3 14,0 23,6 22,5 23 12 45 25 NNE 1027,9 20 0,0
24.09.2018 21:00:00 15,6 3,1 14,5 23,6 22,5 24 13 45 25 N 1027,3 20 0,0
24.09.2018 20:00:00 16,3 3,4 15,6 23,6 22,5 35 19 67 36 N 1025,7 20 0,0
24.09.2018 19:00:00 17,1 4,1 18,2 23,7 22,5 33 18 68 37 N 1025,2 20 0,0
24.09.2018 18:00:00 18,2 4,0 20,8 23,7 22,5 29 16 57 31 N 1025,4 20 0,0
24.09.2018 17:00:00 18,4 4,5 22,1 23,8 22,5 31 17 62 33 N 1025,0 20 0,0
24.09.2018 16:00:00 18,7 4,8 21,9 23,8 22,5 25 13 57 31 N 1025,3 20 0,0
24.09.2018 15:00:00 18,8 4,2 23,2 23,9 22,5 25 14 63 34 NNW 1025,2 20 0,0
24.09.2018 14:00:00 18,1 3,2 22,9 23,9 22,5 34 18 64 34 N 1025,6 20 0,0
24.09.2018 13:00:00 17,7 3,6 22,2 24,0 22,5 29 16 69 37 N 1026,2 20 0,0
24.09.2018 12:00:00 17,0 3,6 21,0 24,0 22,5 37 20 61 33 N 1026,1 20 0,0
24.09.2018 11:00:00 16,6 4,0 20,3 24,0 22,5 32 17 62 33 N 1026,3 20 0,0
24.09.2018 10:00:00 16,0 5,0 17,1 24,0 22,5 28 15 58 32 N 1025,1 20 0,0
24.09.2018 09:00:00 15,5 6,0 15,1 24,0 22,5 23 13 45 25 N 1024,9 20 0,0
24.09.2018 08:00:00 14,4 7,4 13,4 24,0 22,5 19 10 59 32 NNE 1025,0 20 0,0
24.09.2018 07:00:00 14,6 7,6 13,8 24,0 22,5 30 16 59 32 N 1024,0 20 0,0
24.09.2018 06:00:00 14,7 8,2 14,2 24,0 22,5 27 14 68 37 N 1024,5 20 0,0
24.09.2018 05:00:00 15,5 8,9 15,2 24,0 22,5 51 27 81 44 N 1022,9 19 0,0
24.09.2018 04:00:00 18,0 9,6 17,4 24,0 22,5 25 14 50 27 N 1022,7 20 0,0
24.09.2018 03:00:00 19,3 10,8 18,8 23,9 22,5 26 14 48 26 N 1022,3 20 0,0
24.09.2018 02:00:00 20,7 12,4 18,9 23,9 22,5 26 14 51 27 N 1021,2 20 0,0
24.09.2018 01:00:00 22,8 13,8 19,1 23,8 22,5 2 1 18 10 N 1019,7 20 0,0
24.09.2018 00:00:00 23,6 13,5 21,8 23,7 22,5 9 5 18 10 NNE 1019,7 20 0,0
23.09.2018 23:00:00 23,8 13,3 21,5 23,7 22,5 9 5 21 11 N 1019,6 20 0,0
23.09.2018 22:00:00 25,8 13,6 24,7 23,7 22,5 17 9 42 23 N 1019,6 20 0,0
23.09.2018 21:00:00 27,0 13,4 24,9 23,6 22,5 9 5 19 11 NNW 1018,9 20 0,0
23.09.2018 20:00:00 27,8 13,3 26,7 23,6 22,5 10 5 33 18 WNW 1017,9 20 0,0
23.09.2018 19:00:00 30,7 13,9 31,7 23,6 22,5 14 8 31 17 WNW 1017,1 20 0,0
23.09.2018 18:00:00 32,8 13,4 35,4 23,5 22,5 15 8 29 16 W 1016,1 20 0,0
23.09.2018 17:00:00 33,3 14,8 38,5 23,6 22,5 12 6 22 12 S 1016,1 20 0,0
23.09.2018 16:00:00 32,9 14,5 38,6 23,6 22,5 9 5 23 12 S 1016,5 20 0,0
23.09.2018 15:00:00 32,6 14,2 37,7 23,6 22,5 5 3 22 12 SW 1017,2 20 0,0
23.09.2018 14:00:00 31,6 14,7 37,4 23,6 22,5 5 3 16 9 SE 1018,5 20 0,0
23.09.2018 13:00:00 30,3 14,0 35,7 23,7 22,5 5 3 11 6 SW 1019,4 20 0,0
23.09.2018 12:00:00 28,1 14,0 32,8 23,7 22,5 6 3 14 7 WSW 1020,3 20 0,0
23.09.2018 11:00:00 25,9 13,4 30,4 23,7 22,5 6 3 12 6 S 1021,0 20 0,0
23.09.2018 10:00:00 22,8 13,0 26,7 23,8 22,5 5 3 16 9 WNW 1021,7 20 0,0
23.09.2018 09:00:00 20,7 13,4 19,1 23,8 22,5 7 4 13 7 NNW 1021,6 20 0,0
23.09.2018 08:00:00 18,8 12,3 13,2 23,8 22,5 6 4 16 9 NNE 1021,8 20 0,0
23.09.2018 07:00:00 16,1 9,7 13,0 23,8 22,5 0 0 5 3 N 1022,2 20 0,0
23.09.2018 06:00:00 16,6 9,0 14,7 23,8 22,5 3 2 15 8 S 1022,2 20 0,0
23.09.2018 05:00:00 19,1 9,6 15,9 23,8 22,5 10 5 16 9 NW 1022,0 20 0,0
23.09.2018 04:00:00 19,1 10,4 16,1 23,8 22,5 4 2 16 9 NE 1022,3 20 0,0
23.09.2018 03:00:00 20,4 9,6 18,3 23,8 22,5 5 3 21 11 NNE 1022,7 20 0,0
23.09.2018 02:00:00 20,5 7,8 18,7 23,8 22,5 11 6 27 15 ENE 1022,8 20 0,0
23.09.2018 01:00:00 21,5 5,8 18,3 23,8 22,5 13 7 27 15 N 1022,8 20 0,0
23.09.2018 00:00:00 19,2 5,3 17,4 23,7 22,5 8 4 13 7 N 1023,1 20 0,0
22.09.2018 23:00:00 20,3 5,1 17,8 23,7 22,5 9 5 15 8 N 1022,9 20 0,0
22.09.2018 22:00:00 19,4 4,3 15,5 23,7 22,5 6 3 13 7 NNE 1022,7 20 0,0
22.09.2018 21:00:00 20,3 4,3 16,5 23,7 22,5 4 2 9 5 W 1022,2 20 0,0
22.09.2018 20:00:00 22,0 4,1 19,8 23,7 22,5 5 3 13 7 N 1021,1 20 0,0
22.09.2018 19:00:00 24,4 4,2 25,5 23,7 22,5 8 5 21 11 ENE 1020,4 20 0,0
22.09.2018 18:00:00 26,0 3,9 28,6 23,7 22,5 14 8 21 12 ESE 1020,0 20 0,0
22.09.2018 17:00:00 27,4 3,8 31,7 23,8 22,5 11 6 21 11 E 1019,8 20 0,0
22.09.2018 16:00:00 27,9 2,1 33,6 23,8 22,5 6 3 29 16 NNE 1020,0 20 0,0
22.09.2018 15:00:00 25,8 3,1 32,5 23,8 22,5 11 6 26 14 E 1020,8 20 0,0
22.09.2018 14:00:00 24,8 4,0 31,4 23,9 22,5 9 5 27 15 ENE 1021,7 20 0,0
22.09.2018 13:00:00 23,1 4,6 29,3 23,9 22,5 9 5 23 13 NE 1022,4 20 0,0
22.09.2018 12:00:00 21,7 5,6 27,4 24,0 22,5 11 6 27 15 NNE 1023,0 20 0,0
22.09.2018 11:00:00 19,8 6,5 21,5 23,9 22,5 14 8 36 19 NNE 1023,4 20 0,0
22.09.2018 10:00:00 17,7 6,5 20,2 24,0 22,5 18 10 35 19 NE 1023,6 20 0,0
22.09.2018 09:00:00 16,1 6,8 14,5 24,0 22,5 19 11 40 21 NNE 1023,8 20 0,0
22.09.2018 08:00:00 14,3 7,1 13,0 24,0 22,5 11 6 26 14 NE 1023,9 20 0,0
22.09.2018 07:00:00 13,9 7,4 12,9 24,0 22,5 11 6 30 16 NNE 1023,7 20 0,0
22.09.2018 06:00:00 14,3 7,8 13,2 24,0 22,5 14 8 32 17 NNE 1023,2 20 0,0
22.09.2018 05:00:00 14,7 8,4 13,5 24,0 22,5 13 7 29 16 NE 1023,4 20 0,0
22.09.2018 04:00:00 15,2 9,3 14,4 24,0 22,5 13 7 42 23 NNE 1023,3 20 0,0
22.09.2018 03:00:00 15,7 9,8 15,3 24,0 22,5 24 13 48 26 N 1022,8 20 0,0
22.09.2018 02:00:00 16,6 10,7 16,2 23,9 22,5 27 15 52 28 NNE 1022,5 20 0,0
22.09.2018 01:00:00 18,9 12,2 18,3 23,9 22,5 14 8 35 19 NNE 1021,6 20 0,0
22.09.2018 00:00:00 20,2 12,7 19,9 23,9 22,5 21 11 31 17 N 1021,4 20 0,0
21.09.2018 23:00:00 21,2 13,4 20,7 23,8 22,4 16 8 34 18 NE 1020,8 20 0,0
21.09.2018 22:00:00 23,4 13,0 23,0 23,8 22,5 13 7 26 14 N 1020,2 20 0,0
21.09.2018 21:00:00 24,2 11,5 23,4 23,8 22,5 7 4 18 10 NNE 1019,4 20 0,0
21.09.2018 20:00:00 25,4 10,8 25,0 23,8 22,5 15 8 31 17 NW 1018,2 20 0,0
21.09.2018 19:00:00 26,8 9,6 26,6 23,8 22,5 13 7 31 17 NW 1017,0 20 0,0
21.09.2018 18:00:00 28,5 9,2 28,8 23,8 22,5 14 7 27 15 NW 1016,1 20 0,0
21.09.2018 17:00:00 31,3 11,1 34,0 23,8 22,5 16 9 32 17 WSW 1015,1 20 0,0
21.09.2018 16:00:00 30,3 15,2 32,9 23,8 22,5 9 5 16 9 S 1015,5 19 0,0
21.09.2018 15:00:00 29,3 15,1 33,2 23,9 22,5 8 5 20 11 SW 1015,8 20 0,0
21.09.2018 14:00:00 28,7 14,9 33,7 23,9 22,5 13 7 26 14 S 1016,4 20 0,0
21.09.2018 13:00:00 26,9 15,0 31,4 23,9 22,5 13 7 22 12 S 1017,1 20 0,0
21.09.2018 12:00:00 25,7 15,4 31,3 23,9 22,5 8 4 16 9 S 1017,6 20 0,0
21.09.2018 11:00:00 24,1 15,6 25,9 23,9 22,5 4 2 9 5 SW 1018,1 20 0,0
21.09.2018 10:00:00 20,9 14,8 21,7 24,0 22,5 2 1 6 4 E 1018,4 20 0,0
21.09.2018 09:00:00 18,7 14,4 15,0 24,0 22,5 3 1 8 4 NE 1018,3 20 0,0
21.09.2018 08:00:00 14,7 13,1 11,7 24,0 22,5 2 1 7 4 NNE 1018,7 20 0,0
21.09.2018 07:00:00 15,1 13,1 11,9 24,0 22,5 6 4 10 5 N 1018,0 20 0,0
21.09.2018 06:00:00 15,3 13,0 11,8 24,0 22,5 2 1 6 4 NE 1018,0 20 0,0
21.09.2018 05:00:00 16,0 13,3 13,4 24,0 22,5 6 3 8 4 NNE 1018,1 20 0,0
21.09.2018 04:00:00 16,5 13,2 13,6 23,9 22,5 4 2 5 3 NE 1018,5 20 0,0
21.09.2018 03:00:00 17,1 13,4 14,1 23,9 22,5 0 0 8 5 N 1018,7 20 0,0
21.09.2018 02:00:00 18,5 13,8 14,8 23,9 22,5 0 0 6 4 N 1018,5 20 0,0
21.09.2018 01:00:00 18,9 13,3 16,0 23,8 22,5 3 2 6 3 NE 1018,5 20 0,0
21.09.2018 00:00:00 19,9 13,8 17,1 23,8 22,5 4 2 9 5 NNE 1018,4 20 0,0
20.09.2018 23:00:00 22,2 14,6 18,2 23,7 22,5 5 3 10 5 SSW 1017,7 20 0,0
20.09.2018 22:00:00 23,5 14,2 19,0 23,7 22,5 4 2 6 4 SSW 1017,4 20 0,0
20.09.2018 21:00:00 25,0 13,5 20,5 23,6 22,5 5 3 13 7 SSW 1016,9 20 0,0
20.09.2018 20:00:00 26,8 13,2 22,1 23,6 22,5 4 2 12 7 S 1016,1 20 0,0
20.09.2018 19:00:00 30,0 12,9 30,7 23,6 22,5 10 6 16 9 S 1015,7 20 0,0
20.09.2018 18:00:00 31,6 11,9 35,3 23,6 22,5 10 6 19 11 S 1015,5 20 0,0
20.09.2018 17:00:00 32,8 11,9 38,2 23,6 22,5 8 4 19 10 SSW 1015,7 20 0,0
20.09.2018 16:00:00 32,4 11,5 38,6 23,6 22,5 6 4 16 8 E 1016,1 20 0,0
20.09.2018 15:00:00 31,5 11,8 39,0 23,6 22,5 7 4 22 12 N 1017,1 20 0,0
20.09.2018 14:00:00 30,9 11,8 37,9 23,7 22,5 6 4 21 11 NE 1017,7 20 0,0
20.09.2018 13:00:00 30,4 13,2 38,3 23,8 22,5 10 5 21 11 N 1018,5 20 0,0
20.09.2018 12:00:00 29,7 14,3 35,2 23,8 22,5 8 4 23 12 NE 1019,2 20 0,0
20.09.2018 11:00:00 27,7 14,7 32,1 23,8 22,5 9 5 17 9 N 1019,9 20 0,0
20.09.2018 10:00:00 24,5 14,3 25,7 23,8 22,5 2 1 6 4 SW 1020,4 20 0,0
20.09.2018 09:00:00 20,2 13,9 17,3 23,8 22,5 0 0 6 3 N 1020,7 20 0,0
20.09.2018 08:00:00 17,3 12,8 13,4 23,8 22,5 3 1 9 5 WNW 1020,9 20 0,0
20.09.2018 07:00:00 17,0 12,5 13,2 23,8 22,5 4 2 7 4 NNE 1020,8 20 0,0
20.09.2018 06:00:00 16,5 12,6 13,1 23,8 22,5 3 2 6 4 ENE 1020,9 20 0,0
20.09.2018 05:00:00 17,0 12,9 13,4 23,8 22,5 5 3 7 4 NNE 1020,9 20 0,0
20.09.2018 04:00:00 17,3 12,8 13,8 23,8 22,5 4 2 6 3 NNE 1021,0 20 0,0
20.09.2018 03:00:00 17,4 13,1 14,2 23,8 22,5 3 1 5 3 NNE 1021,2 20 0,0
20.09.2018 02:00:00 18,1 13,2 14,4 23,7 22,5 0 0 8 4 N 1021,4 20 0,0
20.09.2018 01:00:00 19,2 13,4 15,4 23,6 22,5 2 1 8 4 NE 1021,4 20 0,0
20.09.2018 00:00:00 19,5 13,7 16,4 23,6 22,4 3 2 8 5 NNE 1021,2 20 0,0
19.09.2018 23:00:00 20,5 13,9 17,5 23,6 22,5 5 3 10 6 NE 1021,0 20 0,0
19.09.2018 22:00:00 21,4 13,6 18,7 23,5 22,5 4 2 9 5 NNE 1020,6 20 0,0
19.09.2018 21:00:00 25,0 13,5 19,2 23,5 22,5 0 0 6 3 N 1019,8 20 0,0
19.09.2018 20:00:00 26,1 13,2 21,1 23,5 22,5 4 2 10 5 SSW 1019,3 20 0,0
19.09.2018 19:00:00 29,2 12,2 30,4 23,5 22,5 8 4 15 8 S 1018,5 20 0,0
19.09.2018 18:00:00 30,9 12,3 34,5 23,5 22,5 7 4 16 9 S 1018,0 20 0,0
19.09.2018 17:00:00 31,1 12,0 35,9 23,5 22,5 10 6 19 11 SSW 1018,2 20 0,0
19.09.2018 16:00:00 31,0 11,4 36,9 23,5 22,5 8 5 18 10 WSW 1018,7 20 0,0
19.09.2018 15:00:00 30,2 13,0 36,2 23,5 22,5 10 5 19 11 S 1019,2 18 0,0
19.09.2018 14:00:00 29,3 13,9 34,8 23,6 22,5 8 5 19 10 SSE 1020,0 20 0,0
19.09.2018 13:00:00 27,7 14,7 33,4 23,6 22,5 8 4 16 9 SSW 1020,7 20 0,0
19.09.2018 12:00:00 26,3 14,7 32,2 23,6 22,5 4 2 10 6 SE 1021,4 20 0,0
19.09.2018 11:00:00 24,1 14,5 27,4 23,6 22,5 3 1 7 4 NE 1021,8 20 0,0
19.09.2018 10:00:00 21,4 14,3 22,4 23,7 22,5 3 1 6 3 E 1021,8 20 0,0
19.09.2018 09:00:00 18,0 13,5 14,9 23,7 22,5 3 1 4 2 E 1021,8 20 0,0

tt = Température de l'air
td = dewpoint
tt 5cm = Température de l'air 5cm
tt -20cm = Température de l'air -20cm
tt -100cm = Température de l'air -100cm
ff = Vitesse du vent
fx = gusts
dd = Direction du vent
ppp = reduced air pressure
vv = visibility
rr = Quantités de précipitations

stations d'obs. à proximité